JO-97
1 43803U 18099AX  24329.60191256  .00019143  00000-0  10717-2 0  9991
2 43803  97.4987  25.1152 0009810 108.9840 251.2455 15.13436948326906
Suomi 100
1 43804U 18099AY  24328.90252945  .00018481  00000-0  10754-2 0  9992
2 43804  97.5062  24.1261 0015224 112.0560 248.2289 15.11996716326760
ISAT
1 43879U 18111D   24329.16932900  .00027378  00000-0  13243-2 0  9995
2 43879  97.6053 234.7552 0011673 154.7985 205.3820 15.18506103323624
UWE-4
1 43880U 18111E   24328.70387080  .00023039  00000-0  11790-2 0  9994
2 43880  97.5983 233.8218 0014329 169.8995 190.2528 15.16541580323549
Sparrow
1 43881U 18111F   24328.28774232  .00028625  00000-0  13588-2 0  9990
2 43881  97.6169 236.1173 0007223 193.8551 166.2486 15.19187838323566
Prox-1
1 44339U 19036A   24329.23264233  .00021126  00000-0  31829-2 0  9994
2 44339  23.9984 271.4464 0007613 349.4662  10.5674 14.72889556288814
SONATE
1 44400U 19038Q   24329.57688313  .00051933  00000-0  98550-3 0  9995
2 44400  97.7135 332.3119 0009217 246.6303 113.3977 15.48099456298765
Taurus 1
1 44530U 19059C   24329.81050778  .00015096  00000-0  31170-2 0  9991
2 44530  98.5884  94.9095 0010564 278.7496  81.2507 14.60446022275168
Duchifat 3
1 44854U 19089C   24329.77912993  .00038700  00000-0  14203-2 0  9999
2 44854  36.9506 147.3284 0011547   2.4826 357.5980 15.26988695272664
TO-108
1 44881U 19093C   24329.76704526  .00002899  00000-0  34783-3 0  9990
2 44881  97.8151  43.4264 0014681 152.5063 207.6931 14.84717904266864
FloripaSat 1
1 44885U 19093G   24329.64051770  .00012766  00000-0  11924-2 0  9992
2 44885  97.8310  51.3112 0012253 140.6510 219.5602 14.94240088267293
RS-44
1 44909U 19096E   24328.52312456  .00000018  00000-0  23452-4 0  9997
2 44909  82.5230 358.8980 0218143  38.9391 322.7194 12.79736182229356
UPMSat 2
1 46276U 20061E   24329.73952317  .00042724  00000-0  90090-3 0  9991
2 46276  97.2765  35.0038 0000083 225.2007 134.9236 15.45113143234860
AmicalSat
1 46287U 20061R   24328.18785967  .00216170  00000-0  19157-2 0  9998
2 46287  97.3221  37.8487 0001710 303.1379  56.9718 15.67918416234165
SALSAT
1 46495U 20068K   24329.36688181  .00013728  00000-0  68398-3 0  9993
2 46495  97.8381 293.3409 0014723 118.1503 242.1219 15.17597906228566
IDEASSat
1 47458U 21006AX  24329.61210133  .00543815  11429-3  18921-2 0  9993
2 47458  97.2977  33.0011 0004087 304.4290  55.6596 15.89359176213545
CubeSX-Sirius-HSE
1 47951U 21022V   24329.76858617  .00057485  00000-0  14149-2 0  9991
2 47951  97.4401 228.9320 0007398 301.2934  58.7587 15.40382995203155
CubeSX-HSE
1 47952U 21022W   24329.76746040  .00062219  00000-0  15122-2 0  9991
2 47952  97.4399 229.0693 0007261 298.6084  61.4432 15.40745879203166
KSU-Cubesat
1 47954U 21022Y   24329.20692915  .00098311  00000-0  18179-2 0  9990
2 47954  97.4393 230.9767 0004393 294.9889  65.0904 15.48686054202957
GRBAlpha
1 47959U 21022AD  24329.79036612  .00059687  00000-0  14516-2 0  9999
2 47959  97.4402 229.2605 0007183 298.4663  61.5859 15.40738503201996
Orbicraft-Zorkiy
1 47960U 21022AE  24329.79167953  .00078954  00000-0  16137-2 0  9993
2 47960  97.4444 231.3819 0005317 298.0501  62.0210 15.45853758202790
TUBIN
1 48900U 21059X   24329.78535399  .00040135  00000-0  97593-3 0  9996
2 48900  97.6614 120.4172 0005404 237.6204 122.4519 15.40853758189558
LEDSAT
1 49069U 21073D   24329.66015723  .00042535  00000-0  11885-2 0  9995
2 49069  97.4187  40.6765 0015669  74.6722 285.6252 15.36451747180988
CUTE
1 49263U 21088D   24329.63626100  .00049130  00000-0  15569-2 0  9992
2 49263  97.4773  35.6273 0010438 233.7860 126.2417 15.32508313174099
TeikyoSat 4
1 49396U 21102B   24329.60070682  .00005441  00000-0  37625-3 0  9996
2 49396  97.4398   9.0146 0014322  88.7343 271.5525 15.06023947166881
Z-Sat
1 49399U 21102E   24329.80081042  .00009250  00000-0  54902-3 0  9992
2 49399  97.4111  11.2686 0020634  67.0976 293.2430 15.11363403167221
KOSEN 1
1 49402U 21102H   24329.59395513  .00012937  00000-0  68006-3 0  9990
2 49402  97.4027  13.2031 0018555  49.9371 310.3486 15.15655438167403
HO-113
1 50466U 21131B   24329.78206418  .00001595  00000-0  51737-3 0  9991
2 50466  98.5221  54.1046 0004290  20.9714 339.1649 14.40278461153111
IRIS-A
1 51044U 22002BN  24328.91592642  .00059216  00000-0  12144-2 0  9994
2 51044  97.3635  36.0302 0004475 174.6611 185.4687 15.45843228158969
Planetum 1
1 52738U 22057G   24329.69005104  .01423308  12869-2  19427-2 0  9990
2 52738  97.5615 105.9316 0009703 296.5909  63.4377 16.06494518139562
Foresail-1
1 52766U 22057AL  24329.33417490  .00056773  00000-0  11511-2 0  9992
2 52766  97.5965 100.1996 0007858 278.5159  81.5199 15.46166893139061
SNUGLITE 2
1 52899U 22065F   24329.82117528  .00003258  00000-0  65746-3 0  9991
2 52899  98.1412 108.2097 0007759  18.4675 341.6807 14.62085878127723
IO-117
1 53106U 22080B   24323.52137211 -.00000003  00000-0  00000+0 0  9996
2 53106  70.1294 138.9057 0008387  72.7310 287.4267  6.42557804 55185
FO-118
1 54684U 22167C   24329.69730449  .00110950  00000-0  17854-2 0  9990
2 54684  97.6150 120.6252 0008929 290.3774  69.6518 15.52542656108987
SSS-2B
1 56184U 23054G   24329.79966606  .00308589  00000-0  16758-2 0  9999
2 56184  97.3394 231.9316 0004151  82.8032 277.3707 15.79160964 91078
SO-120
1 56992U 23084BU  24329.60313882  .00140635  00000-0  21537-2 0  9998
2 56992  97.5370  93.1320 0006771 192.1930 167.9161 15.53830180 80832
MRC-100
1 56993U 23084BV  24329.29312422  .00276851  00000-0  27021-2 0  9997
2 56993  97.5342  94.3393 0005347 217.4819 142.6068 15.65306405 80893
UmKA 1 (RS40S)
1 57172U 23091G   24329.78407448  .00010665  00000-0  63545-3 0  9993
2 57172  97.5904  20.3894 0014428 294.7141  65.2586 15.11286072 77718
CubeBel-2 (EU11S)
1 57175U 23091K   24329.80252050  .00015432  00000-0  86834-3 0  9999
2 57175  97.5908  20.6600 0012646 307.0984  52.9091 15.13278823 77739
VERONIKA
1 58261U 23174F   24329.78881552  .00049900  00000-0  14822-2 0  9994
2 58261  97.4430  44.2236 0009308  36.7944 323.3936 15.34573727 58214
KAFASAT
1 58317U 23174BP  24329.78315027  .00084289  00000-0  18671-2 0  9990
2 58317  97.4359  45.9320 0007407   2.9785 357.1505 15.43439250 58347
ENSO
1 58470U 23185J   24329.79364185  .00041637  00000-0  12464-2 0  9996
2 58470  97.4059  35.7161 0010750  71.9733 288.2681 15.34357805 54663
EIRSAT-1
1 58472U 23185L   24329.77576199  .00047028  00000-0  13156-2 0  9995
2 58472  97.4050  36.0098 0009961  71.7012 288.5315 15.36465406 54687
SONATE-2
1 59112U 24043Q   24329.75526953  .00023981  00000-0  93561-3 0  9993
2 59112  97.4941  92.7587 0013651  92.3787 267.9015 15.25835277 40227
MO-122
1 60209U 24125G   24329.53744317  .00025470  00000-0  98719-3 0  9990
2 60209  97.3002 178.4742 0024491 117.3406 243.0329 15.25842740 21807
GRBBeta
1 60237U 24128C   24328.76988379  .00008068  00000-0  66530-3 0  9996
2 60237  61.9947  47.6549 0028026   6.2480 353.8953 14.99432345 20506
Curium One
1 60242U 24128H   24329.60447982  .00013020  00000-0  10501-2 0  9996
2 60242  61.9852  44.8811 0028496 357.3423   2.7510 14.99883683 20634
ROBUSTA-3A
1 60243U 24128J   24329.22560114  .00013895  00000-0  11296-2 0  9990
2 60243  61.9919  46.4779 0026411 354.6203   5.4599 14.99578912 20577
CatSat
1 60246U 24125J   24329.83397294  .00018709  00000-0  74942-3 0  9991
2 60246  97.2809 179.6152 0050447  72.6631 288.0116 15.23887310 19959
CosmoGirlSat
1 60953U 98067WT  24329.14982280  .00555093  12715-3  19301-2 0  9999
2 60953  51.6211 233.6084 0010260 187.1687 172.9173 15.88734926 13584
Sakura
1 60954U 98067WU  24329.74734376  .01537422  15054-2  21672-2 0  9996
2 60954  51.6160 228.5574 0010821 197.4155 162.6487 16.05302055 13704
CySat-1
1 61501U 98067WZ  24329.77488688  .00234747  00000-0  21291-2 0  9993
2 61501  51.6322 237.0905 0011502 194.9393 165.1264 15.66661232  7423
DORA
1 61502U 98067XA  24329.78592252  .01934017  23661-2  40466-2 0  9991
2 61502  51.6130 234.1195 0015605 194.5215 165.5348 15.98666341  7458
